timestamp,surface_pressure_avg,surface_temp_avg,battery_voltage,lat,long
2018-05-04 00:00:00+00:00,314.8597,4.1,12.97,47.84626,-54.09684
2018-05-04 00:10:00+00:00,317.5963,4.07,12.89,47.84626,-54.09684
2018-05-04 00:20:00+00:00,322.108,4.0,12.97,47.84626,-54.09684
2018-05-04 00:30:00+00:00,321.0746,4.0,12.97,47.84626,-54.09684
2018-05-04 00:40:00+00:00,323.3163,4.0,12.97,47.84626,-54.09684
2018-05-04 00:50:00+00:00,329.3596,4.0,12.97,47.84626,-54.09684
2018-05-04 01:00:00+00:00,338.5797,3.97,12.97,47.84626,-54.09684
2018-05-04 01:10:00+00:00,338.4097,3.9,12.89,47.84626,-54.09684
2018-05-04 01:20:00+00:00,341.9063,3.8,12.97,47.84626,-54.09684
2018-05-04 01:30:00+00:00,347.348,3.77,12.97,47.84626,-54.09684
2018-05-04 01:40:00+00:00,348.1946,3.77,12.97,47.84626,-54.09684
2018-05-04 01:50:00+00:00,342.9912,3.72,12.97,47.84626,-54.09684
2018-05-04 02:00:00+00:00,346.1213,3.7,12.89,47.84626,-54.09684
2018-05-04 02:10:00+00:00,349.7764,3.63,12.81,47.84626,-54.09684
2018-05-04 02:20:00+00:00,348.3613,3.67,12.89,47.84626,-54.09684
2018-05-04 02:30:00+00:00,351.0378,3.64,12.97,47.84626,-54.09684
2018-05-04 02:40:00+00:00,354.6512,3.69,12.97,47.84626,-54.09684
2018-05-04 02:50:00+00:00,347.9829,3.69,12.97,47.84626,-54.09684
2018-05-04 03:00:00+00:00,342.9479,3.6,12.89,47.84626,-54.09684
2018-05-04 03:10:00+00:00,348.2346,3.6,12.81,47.84626,-54.09684
2018-05-04 03:20:00+00:00,349.3979,3.6,12.89,47.84626,-54.09684
2018-05-04 03:30:00+00:00,339.8964,3.72,12.89,47.84626,-54.09684
2018-05-04 03:40:00+00:00,331.6929,3.8,12.97,47.84626,-54.09684
2018-05-04 03:50:00+00:00,328.1779,3.9,12.97,47.84626,-54.09684
2018-05-04 04:00:00+00:00,324.3613,3.96,12.89,47.84626,-54.09684
2018-05-04 04:10:00+00:00,317.9763,4.0,12.81,47.84626,-54.09684
2018-05-04 04:20:00+00:00,315.9932,4.0,12.89,47.84626,-54.09684
2018-05-04 04:30:00+00:00,311.603,4.0,12.89,47.84626,-54.09684
2018-05-04 04:40:00+00:00,305.1214,4.0,12.89,47.84626,-54.09684
2018-05-04 04:50:00+00:00,293.613,4.0,12.97,47.84626,-54.09684
2018-05-04 05:00:00+00:00,288.3013,4.0,12.89,47.84626,-54.09684
2018-05-04 05:10:00+00:00,281.1964,4.0,12.81,47.84626,-54.09684
2018-05-04 05:20:00+00:00,269.7647,4.04,12.89,47.84626,-54.09684
2018-05-04 05:30:00+00:00,259.1564,4.09,12.89,47.84626,-54.09684
2018-05-04 05:40:00+00:00,253.7164,4.08,12.89,47.84626,-54.09684
2018-05-04 05:50:00+00:00,249.3314,3.6,12.97,47.84626,-54.09684
2018-05-04 06:00:00+00:00,233.1464,3.7,12.89,47.84626,-54.09684
2018-05-04 06:10:00+00:00,223.5481,3.59,12.81,47.84626,-54.09684
2018-05-04 06:20:00+00:00,227.3382,3.6,12.89,47.84626,-54.09684
2018-05-04 06:30:00+00:00,222.8448,3.69,12.89,47.84626,-54.09684
2018-05-04 06:40:00+00:00,211.3198,3.6,12.89,47.84626,-54.09684
2018-05-04 06:50:00+00:00,202.9148,3.74,12.89,47.84626,-54.09684
2018-05-04 07:00:00+00:00,197.8115,3.66,12.89,47.84626,-54.09684
2018-05-04 07:10:00+00:00,199.4231,3.5,12.81,47.84626,-54.09684
2018-05-04 07:20:00+00:00,198.8414,3.76,12.89,47.84626,-54.09684
2018-05-04 07:30:00+00:00,192.2032,4.08,12.89,47.84626,-54.09684
2018-05-04 07:40:00+00:00,190.7648,4.1,12.89,47.84626,-54.09684
2018-05-04 07:50:00+00:00,191.4948,3.97,12.89,47.84626,-54.09684
2018-05-04 08:00:00+00:00,191.2064,4.0,12.89,47.84626,-54.09684
2018-05-04 08:10:00+00:00,194.0664,3.98,12.81,47.84626,-54.09684
2018-05-04 08:20:00+00:00,197.3548,3.88,12.89,47.84626,-54.09684
2018-05-04 08:30:00+00:00,201.8898,3.6,12.89,47.84626,-54.09684
2018-05-04 08:40:00+00:00,203.1115,3.67,12.89,47.84626,-54.09684
2018-05-04 08:50:00+00:00,202.8948,3.48,12.89,47.84626,-54.09684
2018-05-04 09:00:00+00:00,210.8648,3.4,12.89,47.84626,-54.09684
2018-05-04 09:10:00+00:00,212.0714,3.4,12.81,47.84626,-54.09684
2018-05-04 09:20:00+00:00,210.5365,3.4,12.89,47.84626,-54.09684
2018-05-04 09:30:00+00:00,212.9414,3.39,12.89,47.84626,-54.09684
2018-05-04 09:40:00+00:00,214.8748,3.4,12.97,47.84626,-54.09684
2018-05-04 09:50:00+00:00,213.9431,3.38,12.97,47.84626,-54.09684
2018-05-04 10:00:00+00:00,208.9714,3.35,12.97,47.84626,-54.09684
2018-05-04 10:10:00+00:00,215.4515,3.3,12.89,47.84626,-54.09684
2018-05-04 10:20:00+00:00,221.2181,3.3,13.05,47.84626,-54.09684
2018-05-04 10:30:00+00:00,218.5149,3.3,13.13,47.84626,-54.09684
2018-05-04 10:40:00+00:00,219.4614,3.3,13.21,47.84626,-54.09684
2018-05-04 10:50:00+00:00,227.4614,3.3,13.29,47.84626,-54.09684
2018-05-04 11:00:00+00:00,230.3748,3.3,13.44,47.84626,-54.09684
2018-05-04 11:10:00+00:00,227.2781,3.3,13.6,47.84626,-54.09684
2018-05-04 11:20:00+00:00,233.4698,3.3,14.0,47.84626,-54.09684
2018-05-04 11:30:00+00:00,245.0748,3.3,14.24,47.84626,-54.09684
2018-05-04 11:40:00+00:00,253.7581,3.34,15.51,47.84626,-54.09684
2018-05-04 11:50:00+00:00,252.6564,3.4,16.47,47.84626,-54.09684
2018-05-04 12:00:00+00:00,253.5448,3.4,14.96,47.84626,-54.09684
2018-05-04 12:10:00+00:00,265.8698,3.4,14.64,47.84626,-54.09684
2018-05-04 12:20:00+00:00,278.5081,3.39,14.72,47.84626,-54.09684
2018-05-04 12:30:00+00:00,277.8997,3.47,14.48,47.84626,-54.09684
2018-05-04 12:40:00+00:00,281.053,3.4,14.88,47.84626,-54.09684
2018-05-04 12:50:00+00:00,296.313,3.3,15.75,47.84626,-54.09684
2018-05-04 13:00:00+00:00,301.7063,3.34,14.64,47.84626,-54.09684
2018-05-04 13:10:00+00:00,296.468,3.4,15.6,47.84626,-54.09684
2018-05-04 13:20:00+00:00,301.863,3.3,16.63,47.84626,-54.09684
2018-05-04 13:30:00+00:00,314.6247,3.29,14.64,47.84626,-54.09684
2018-05-04 13:40:00+00:00,312.993,3.3,15.75,47.84626,-54.09684
2018-05-04 13:50:00+00:00,304.3864,3.3,16.07,47.84626,-54.09684
2018-05-04 14:00:00+00:00,311.0297,3.3,14.72,47.84626,-54.09684
2018-05-04 14:10:00+00:00,317.9047,3.3,15.11,47.84626,-54.09684
2018-05-04 14:20:00+00:00,310.8747,3.3,14.64,47.84626,-54.09684
2018-05-04 14:30:00+00:00,304.118,3.3,14.56,47.84626,-54.09684
2018-05-04 14:40:00+00:00,313.153,3.3,14.64,47.84626,-54.09684
2018-05-04 14:50:00+00:00,311.713,3.3,14.8,47.84626,-54.09684
2018-05-04 15:00:00+00:00,304.378,3.35,14.64,47.84626,-54.09684
2018-05-04 15:10:00+00:00,310.548,3.39,14.48,47.84626,-54.09684
2018-05-04 15:20:00+00:00,314.3279,3.4,14.56,47.84626,-54.09684
2018-05-04 15:30:00+00:00,304.998,3.4,14.72,47.84626,-54.09684
2018-05-04 15:40:00+00:00,298.358,3.4,14.64,47.84626,-54.09684
2018-05-04 15:50:00+00:00,301.2097,3.4,14.48,47.84626,-54.09684
2018-05-04 16:00:00+00:00,298.7464,3.4,14.32,47.84626,-54.09684
2018-05-04 16:10:00+00:00,286.6197,3.46,14.24,47.84626,-54.09684
2018-05-04 16:20:00+00:00,282.258,3.48,14.16,47.84626,-54.09684
2018-05-04 16:30:00+00:00,284.0397,3.48,14.08,47.84626,-54.09684
2018-05-04 16:40:00+00:00,280.2664,3.48,14.08,47.84626,-54.09684
2018-05-04 16:50:00+00:00,273.6898,3.49,14.08,47.84626,-54.09684
2018-05-04 17:00:00+00:00,272.1479,3.48,14.08,47.84626,-54.09684
2018-05-04 17:10:00+00:00,268.7814,3.42,14.08,47.84626,-54.09684
2018-05-04 17:20:00+00:00,260.4348,3.48,14.24,47.84626,-54.09684
2018-05-04 17:30:00+00:00,255.6147,3.5,14.48,47.84626,-54.09684
2018-05-04 17:40:00+00:00,254.6448,3.44,14.48,47.84626,-54.09684
2018-05-04 17:50:00+00:00,242.5664,3.46,14.48,47.84626,-54.09684
2018-05-04 18:00:00+00:00,239.0247,3.5,14.24,47.84626,-54.09684
2018-05-04 18:10:00+00:00,238.8414,3.5,14.08,47.84626,-54.09684
2018-05-04 18:20:00+00:00,230.9848,3.5,14.16,47.84626,-54.09684
2018-05-04 18:30:00+00:00,217.9931,3.5,14.08,47.84626,-54.09684
2018-05-04 18:40:00+00:00,207.6065,3.5,14.16,47.84626,-54.09684
2018-05-04 18:50:00+00:00,202.9131,3.5,14.16,47.84626,-54.09684
2018-05-04 19:00:00+00:00,198.1031,3.5,14.0,47.84626,-54.09684
2018-05-04 19:10:00+00:00,193.1915,3.5,13.92,47.84626,-54.09684
2018-05-04 19:20:00+00:00,189.2947,3.5,14.0,47.84626,-54.09684
2018-05-04 19:30:00+00:00,187.2815,3.5,14.0,47.84626,-54.09684
2018-05-04 19:40:00+00:00,186.2064,3.5,14.0,47.84626,-54.09684
2018-05-04 19:50:00+00:00,187.8798,3.5,14.0,47.84626,-54.09684
2018-05-04 20:00:00+00:00,186.9915,3.5,13.84,47.84626,-54.09684
2018-05-04 20:10:00+00:00,189.4698,3.5,13.68,47.84626,-54.09684
2018-05-04 20:20:00+00:00,197.4832,3.5,13.76,47.84626,-54.09684
2018-05-04 20:30:00+00:00,195.6898,3.52,13.76,47.84626,-54.09684
2018-05-04 20:40:00+00:00,191.6731,3.6,13.84,47.84626,-54.09684
2018-05-04 20:50:00+00:00,197.6781,3.69,13.76,47.84626,-54.09684
2018-05-04 21:00:00+00:00,204.9215,3.7,13.68,47.84626,-54.09684
2018-05-04 21:10:00+00:00,200.8581,3.6,13.53,47.84626,-54.09684
2018-05-04 21:20:00+00:00,197.5115,3.69,13.53,47.84626,-54.09684
2018-05-04 21:30:00+00:00,209.2581,3.7,13.44,47.84626,-54.09684
2018-05-04 21:40:00+00:00,215.2014,3.6,13.44,47.84626,-54.09684
2018-05-04 21:50:00+00:00,211.5914,3.53,13.44,47.84626,-54.09684
2018-05-04 22:00:00+00:00,214.2165,3.6,13.37,47.84626,-54.09684
2018-05-04 22:10:00+00:00,222.5114,3.66,13.21,47.84626,-54.09684
2018-05-04 22:20:00+00:00,226.2298,3.5,13.21,47.84626,-54.09684
2018-05-04 22:30:00+00:00,228.1497,3.4,13.21,47.84626,-54.09684
2018-05-04 22:40:00+00:00,228.9814,3.5,13.21,47.84626,-54.09684
2018-05-04 22:50:00+00:00,231.1348,3.57,13.21,47.84626,-54.09684
2018-05-04 23:00:00+00:00,237.2364,3.46,13.13,47.84626,-54.09684
2018-05-04 23:10:00+00:00,244.2581,3.41,13.05,47.84626,-54.09684
2018-05-04 23:20:00+00:00,246.2164,3.48,13.13,47.84626,-54.09684
2018-05-04 23:30:00+00:00,251.5098,3.5,13.13,47.84626,-54.09684
2018-05-04 23:40:00+00:00,267.4964,3.5,13.13,47.84626,-54.09684
2018-05-04 23:50:00+00:00,274.0997,3.5,13.13,47.84626,-54.09684
